Koksijde, Belgium

7:58 PM CEST on September 25, 2016 (GMT +0200)
Koksijde Air Base

Weather History for EBFN - April, 2014

Change the Weather History Date:

Friday, April 4, 2014

  Actual Average Record
Temperature  
Mean Temperature 51 °F -  
Max Temperature 56 °F 51 °F 59 °F (2008)
Min Temperature 46 °F 42 °F 33 °F (2009)
Degree Days  
Heating Degree Days 14    
Growing Degree Days 1 (Base 50)    
Moisture  
Dew Point 48 °F    
Average Humidity 85    
Maximum Humidity 94    
Minimum Humidity 64    
Precipitation  
Precipitation 0.00 in - - ()
Sea Level Pressure  
Sea Level Pressure 29.79 in    
Wind  
Wind Speed 7 mph ()    
Max Wind Speed 12 mph    
Max Gust Speed -    
Visibility 6.2 miles    
Events      
Averages and records for this station are not official NWS values.
T = Trace of Precipitation, MM = Missing Value Source: Averaged Metar Reports

Daily Weather History Graph

Daily Weather History Graph

Search for Another Location

Airport or City:

Trip Planner

Search our weather history database for the weather conditions in past years. The results will help you decide how hot, cold, wet, or windy it might be!

Date:

Astronomy

Apr. 04, 2014 Rise Set
Actual Time 7:18 AM CEST 8:26 PM CEST
Civil Twilight 6:45 AM CEST 9:00 PM CEST
Nautical Twilight 6:04 AM CEST 9:41 PM CEST
Astronomical Twilight 5:20 AM CEST 10:26 PM CEST
Moon 9:59 AM CEST (4/4) 12:54 AM CEST (4/4)
Length of Visible Light 14h 15m
Length of Day
13h 08m
Waxing Crescent, 23% of the Moon is Illuminated
Apr 4
Waxing Crescent
Apr 7
First Quarter
Apr 15
Full
Apr 22
Last Quarter
Apr 29
New

Hourly Weather History & Observations

Time (CEST) Temp. Windchill Dew Point Humidity Pressure Visibility Wind Dir Wind Speed Gust Speed Precip Events Conditions
12:00 AM 53 °F - 48 °F 79% 29.69 in 6 mi SW 4.5 mph - -   Overcast
12:25 AM 53.6 °F - 48.2 °F 82% 29.68 in 6.2 mi WSW 5.8 mph - N/A   Mostly Cloudy
12:55 AM 51.8 °F - 48.2 °F 88% 29.68 in 6.2 mi WSW 4.6 mph - N/A   Mostly Cloudy
1:00 AM 52 °F - 48 °F 81% 29.70 in 9 mi WSW 4.5 mph - -   Mostly Cloudy
1:25 AM 51.8 °F - 48.2 °F 88% 29.68 in 6.2 mi SW 4.6 mph - N/A   Mostly Cloudy
1:55 AM 51.8 °F - 48.2 °F 88% 29.68 in 6.2 mi SW 4.6 mph - N/A   Mostly Cloudy
2:00 AM 52 °F - 48 °F 83% 29.71 in 7 mi SW 4.5 mph - -   Mostly Cloudy
2:25 AM 51.8 °F - 48.2 °F 88% 29.68 in 6.2 mi South 4.6 mph - N/A   Mostly Cloudy
2:55 AM 51.8 °F - 48.2 °F 88% 29.71 in 6.2 mi South 5.8 mph - N/A   Mostly Cloudy
3:00 AM 52 °F - 49 °F 85% 29.72 in 12 mi South 4.5 mph - -   Partly Cloudy
3:25 AM 51.8 °F - 48.2 °F 88% 29.71 in 6.2 mi South 4.6 mph - N/A   Mostly Cloudy
3:55 AM 51.8 °F - 48.2 °F 88% 29.71 in 6.2 mi SSW 6.9 mph - N/A   Mostly Cloudy
4:00 AM 51 °F - 49 °F 89% 29.72 in 11 mi SSW 6.7 mph - -   Partly Cloudy
4:25 AM 51.8 °F - 48.2 °F 88% 29.71 in 6.2 mi SSW 5.8 mph - N/A   Mostly Cloudy
5:55 AM 51.8 °F - 48.2 °F 88% 29.71 in 6.2 mi SSW 5.8 mph - N/A   Mostly Cloudy
6:00 AM 51 °F - 49 °F 90% 29.72 in 10 mi SSW 4.5 mph - -   Overcast
6:13 AM 50.0 °F - 48.2 °F 94% 29.71 in 6.2 mi SW 5.8 mph - N/A   Mostly Cloudy
6:25 AM 50.0 °F - 48.2 °F 94% 29.71 in 6.2 mi SSW 6.9 mph - N/A   Mostly Cloudy
6:52 AM 50.0 °F - 48.2 °F 94% 29.71 in 6.2 mi SSW 8.1 mph - N/A   Mostly Cloudy
6:55 AM 50.0 °F - 48.2 °F 94% 29.71 in 6.2 mi SSW 8.1 mph - N/A   Mostly Cloudy
7:00 AM 50 °F - 48 °F 90% 29.73 in 10 mi SSW 6.7 mph - -   Overcast
7:06 AM 50.0 °F - 48.2 °F 94% 29.71 in 6.2 mi SSW 5.8 mph - N/A   Mostly Cloudy
7:25 AM 50.0 °F - 48.2 °F 94% 29.71 in 5.6 mi SSW 6.9 mph - N/A   Mostly Cloudy
7:55 AM 50.0 °F - 48.2 °F 94% 29.74 in 5.6 mi SSW 8.1 mph - N/A   Mostly Cloudy
8:00 AM 51 °F - 48 °F 87% 29.75 in 6 mi SSW 6.7 mph - -   Overcast
8:25 AM 51.8 °F - 48.2 °F 88% 29.74 in 5.6 mi SSW 9.2 mph - N/A   Mostly Cloudy
8:55 AM 51.8 °F - 50.0 °F 94% 29.74 in 5.0 mi SW 9.2 mph - N/A   Mostly Cloudy
9:00 AM 51 °F - 49 °F 91% 29.76 in 5 mi SW 8.9 mph - -   Overcast
9:25 AM 51.8 °F - 50.0 °F 94% 29.74 in 4.3 mi WSW 10.4 mph - N/A   Mostly Cloudy
9:55 AM 51.8 °F - 50.0 °F 94% 29.77 in 3.7 mi SW 9.2 mph - N/A   Mostly Cloudy
10:00 AM 52 °F - 49 °F 88% 29.78 in 4 mi SW 8.9 mph - -   Overcast
10:25 AM 51.8 °F - 50.0 °F 94% 29.77 in 3.7 mi SW 9.2 mph - N/A   Mostly Cloudy
10:55 AM 53.6 °F - 50.0 °F 88% 29.77 in 3.7 mi SW 10.4 mph - N/A   Mostly Cloudy
11:00 AM 53 °F - 50 °F 85% 29.79 in 4 mi SW 11.2 mph - -   Overcast
11:16 AM 53.6 °F - 50.0 °F 88% 29.77 in 3.7 mi SW 10.4 mph - N/A   Mostly Cloudy
11:25 AM 53.6 °F - 50.0 °F 88% 29.77 in 3.7 mi WSW 10.4 mph - N/A   Mostly Cloudy
11:55 AM 53.6 °F - 50.0 °F 88% 29.80 in 4.3 mi WSW 10.4 mph - N/A   Mostly Cloudy
12:00 PM 53 °F - 49 °F 84% 29.81 in 4 mi WSW 8.9 mph - -   Overcast
12:03 PM 53.6 °F - 50.0 °F 88% 29.80 in 4.3 mi SW 10.4 mph - N/A   Mostly Cloudy
12:25 PM 53.6 °F - 50.0 °F 88% 29.80 in 4.3 mi SW 11.5 mph - N/A   Mostly Cloudy
12:49 PM 53.6 °F - 50.0 °F 88% 29.80 in 4.3 mi SW 10.4 mph - N/A   Mostly Cloudy
12:50 PM 53.6 °F - 50.0 °F 88% 29.80 in 4.3 mi SW 10.4 mph - N/A   Mostly Cloudy
12:55 PM 53.6 °F - 50.0 °F 88% 29.80 in 4.3 mi SW 10.4 mph - N/A   Mostly Cloudy
1:00 PM 54 °F - 49 °F 78% 29.81 in 4 mi SW 8.9 mph - -   Overcast
1:25 PM 53.6 °F - 50.0 °F 88% 29.80 in 4.3 mi WSW 9.2 mph - N/A   Mostly Cloudy
1:55 PM 55.4 °F - 50.0 °F 82% 29.80 in 4.3 mi WSW 9.2 mph - N/A   Mostly Cloudy
2:00 PM 55 °F - 49 °F 74% 29.82 in 4 mi WSW 8.9 mph - -   Mostly Cloudy
2:13 PM 55.4 °F - 50.0 °F 82% 29.80 in 4.3 mi WSW 8.1 mph - N/A   Mostly Cloudy
2:25 PM 55.4 °F - 48.2 °F 77% 29.80 in 4.3 mi WSW 5.8 mph - N/A   Mostly Cloudy
2:55 PM 55.4 °F - 50.0 °F 82% 29.80 in 5.0 mi WNW 8.1 mph - N/A   Mostly Cloudy
3:00 PM 56 °F - 49 °F 71% 29.82 in 5 mi WNW 6.7 mph - -   Mostly Cloudy
3:33 PM 55.4 °F - 50.0 °F 82% 29.80 in 5.0 mi West 10.4 mph - N/A   Mostly Cloudy
3:37 PM 55.4 °F - 50.0 °F 82% 29.83 in 5.0 mi West 9.2 mph - N/A   Mostly Cloudy
3:55 PM 55.4 °F - 50.0 °F 82% 29.80 in 5.0 mi West 8.1 mph - N/A   Mostly Cloudy
4:00 PM 54 °F - 50 °F 82% 29.83 in 5 mi West 8.9 mph - -   Mostly Cloudy
4:25 PM 53.6 °F - 50.0 °F 88% 29.83 in 5.0 mi West 8.1 mph - N/A   Mostly Cloudy
4:53 PM 55.4 °F - 48.2 °F 77% 29.83 in 6.2 mi West 6.9 mph - N/A   Mostly Cloudy
4:55 PM 55.4 °F - 46.4 °F 72% 29.83 in 6.2 mi WSW 8.1 mph - N/A   Mostly Cloudy
5:00 PM 55 °F - 46 °F 64% 29.84 in 8 mi WSW 8.9 mph - -   Mostly Cloudy
5:25 PM 53.6 °F - 46.4 °F 77% 29.83 in 6.2 mi WSW 11.5 mph - N/A   Mostly Cloudy
5:55 PM 53.6 °F - 46.4 °F 77% 29.83 in 6.2 mi WSW 10.4 mph - N/A   Mostly Cloudy
6:00 PM 53 °F - 46 °F 70% 29.85 in 12 mi WSW 8.9 mph - -   Partly Cloudy
6:25 PM 53.6 °F - 46.4 °F 77% 29.86 in 6.2 mi SW 10.4 mph - N/A   Mostly Cloudy
6:55 PM 51.8 °F - 46.4 °F 82% 29.86 in 6.2 mi WSW 11.5 mph - N/A   Mostly Cloudy
7:00 PM 52 °F - 46 °F 72% 29.86 in 12 mi WSW 11.2 mph - -   Scattered Clouds
7:25 PM 51.8 °F - 44.6 °F 76% 29.86 in 6.2 mi WSW 9.2 mph - N/A   Mostly Cloudy
7:55 PM 51.8 °F - 44.6 °F 76% 29.86 in 6.2 mi WSW 10.4 mph - N/A   Mostly Cloudy
8:00 PM 51 °F - 45 °F 74% 29.87 in 12 mi WSW 8.9 mph - -   Scattered Clouds
8:25 PM 50.0 °F - 44.6 °F 82% 29.86 in 6.2 mi SW 5.8 mph - N/A   Mostly Cloudy
8:55 PM 50.0 °F - 44.6 °F 82% 29.89 in 6.2 mi SW 5.8 mph - N/A   Mostly Cloudy
9:00 PM 49 °F - 45 °F 81% 29.89 in 12 mi SW 4.5 mph - -   Scattered Clouds
9:25 PM 50.0 °F - 44.6 °F 82% 29.89 in 6.2 mi SW 6.9 mph - N/A   Mostly Cloudy
9:55 PM 50.0 °F - 44.6 °F 82% 29.89 in 6.2 mi SW 6.9 mph - N/A   Mostly Cloudy
10:00 PM 49 °F - 45 °F 82% 29.90 in 12 mi SW 6.7 mph - -   Scattered Clouds
10:25 PM 48.2 °F - 44.6 °F 87% 29.89 in 6.2 mi SW 5.8 mph - N/A   Mostly Cloudy
10:55 PM 48.2 °F - 44.6 °F 87% 29.89 in 6.2 mi SSW 4.6 mph - N/A   Mostly Cloudy
11:00 PM 47 °F - 45 °F 88% 29.91 in 12 mi SSW 4.5 mph - -   Scattered Clouds
11:25 PM 46.4 °F 43.5 °F 44.6 °F 93% 29.89 in 6.2 mi SSW 5.8 mph - N/A   Mostly Cloudy
11:55 PM 46.4 °F 44.3 °F 44.6 °F 93% 29.92 in 6.2 mi SW 4.6 mph - N/A   Mostly Cloudy